Terminal Aerodrome Forecast
Issued by NWS

Home | Current Version | Previous Version | Text Only | Print | Product List | Glossary On
Versions: 1 2 3 4 5 6 7 8 9 10 11 12 13 14 15 16 17 18 19 20 21 22 23 24 25 26 27 28 29 30 31 32 33 34 35 36 37 38 39 40
000
FTUS45 KBOI 081309 AAA
TAFBKE
TAF AMD
KBKE 081309Z 0813/0912 00000KT 6SM BR SCT002
      TEMPO 0813/0817 1/2SM FZFG VV002
     FM082100 VRB03KT 6SM BR SKC
     FM090200 VRB03KT 2SM BR SCT010=

USA.gov is the U.S. government's official web portal to all federal, state and local government web resources and services.